Content
SEND FEEDBACK

Daily
Averages
Monthly
Summary
Ghana

TEMA, GHANA


Home > Africa > Ghana
Elevation: 59 feet     Latitude: 05 37N     Longitude: 000 01W

WEATHER
 
SELECT A DAY
Number of Records: 94,522;   Date Range: 7/1/96 - 12/18/14
 
SHARE

PRINT THIS DATA

[ ← Previous Day ]
WEATHER ALMANAC - FEBRUARY 13, 2013
[ Next Day → ]
[ °C ]   °F
Weather ElementAverageHighLow
Temperature84.4 °F90 °F (12:00 pm)80.6 °F (6:55 am)
Dewpoint77.2 °F78.8 °F (7:54 am)75 °F (3:00 pm)
Humidity78.5 %89 % (6:55 am)54 % (3:00 pm)
Barometer29.80 in29.87 in (9:00 am)29.74 in (3:10 pm)
Wind Speed11 mph23 mph (3:00 pm)
Weather ElementAverage
Visibility6.5 mi
Wind DirectionSSW (206.2 °)

Weather ElementTotal
Precipitation---
Cooling Degree Days20.3 (Base 65)
Growing Degree Days35.3 (Base 50)
Averaged from 26 records on February 13, 2013
WEATHER CONDITIONS BREAKOUT
WIND DIRECTION BREAKOUT
WEATHER BY HOUR - FEBRUARY 13, 2013
[ °C ]   °F
Local TimeTemperatureDewpointHumidityBarometerVisibilityWind DirectionWind SpeedGust SpeedPrecipitationEventsConditions
2:56 AM82.4 °F77.0 °F84 %29.77 in6.2 miSW (230°)6.9 mphScattered Clouds
3:00 AM82.0 °F77.0 °F80 %29.80 in11.0 miSSW (210°)11.5 mphMostly Cloudy
3:52 AM82.4 °F77.0 °F84 %29.77 in6.2 miSSW (210°)8.1 mphScattered Clouds
4:55 AM82.4 °F77.0 °F84 %29.77 in6.2 miSW (220°)10.4 mphMostly Cloudy
5:53 AM82.4 °F77.0 °F84 %29.80 in6.2 miSW (230°)9.2 mphMostly Cloudy
6:00 AM82.0 °F77.0 °F80 %29.81 in6.0 miSSW (200°)6.9 mphPartly Cloudy
6:55 AM80.6 °F77.0 °F89 %29.80 in4.3 miWSW (250°)5.8 mph
7:54 AM82.4 °F78.8 °F89 %29.83 in4.3 miWest (260°)5.8 mphPartly Cloudy
8:55 AM84.2 °F77.0 °F79 %29.86 in6.2 miWSW (250°)8.1 mphMostly Cloudy
9:00 AM85.0 °F77.0 °F72 %29.87 in6.0 miWSW (240°)9.2 mphMist
9:53 AM86.0 °F77.0 °F74 %29.86 in6.2 miSW (220°)8.1 mphMostly Cloudy
12:00 PM90.0 °F76.0 °F57 %29.83 in9.0 miSouth (180°)13.8 mphMostly Cloudy
12:02 PM87.8 °F77.0 °F70 %29.83 in6.2 miSouth (170°)12.7 mphMostly Cloudy
1:01 PM87.8 °F77.0 °F70 %29.80 inSouth (180°)12.7 mphClear
1:56 PM87.8 °F77.0 °F70 %29.77 in6.2 miSouth (180°)16.1 mphPartly Cloudy
3:00 PM90.0 °F75.0 °F54 %29.76 in9.0 miSouth (180°)23.0 mphPartly Cloudy
3:10 PM87.8 °F77.0 °F70 %29.74 in6.2 miSouth (180°)16.1 mphPartly Cloudy
3:54 PM86.0 °F77.0 °F74 %29.74 in6.2 miSouth (170°)15.0 mphPartly Cloudy
4:56 PM84.2 °F77.0 °F79 %29.77 in6.2 miSSW (210°)13.8 mphPartly Cloudy
5:52 PM84.2 °F77.0 °F79 %29.77 inSSW (210°)13.8 mphClear
6:51 PM84.2 °F77.0 °F79 %29.77 in6.2 miSSW (210°)11.5 mphPartly Cloudy
7:52 PM82.4 °F77.0 °F84 %29.80 in6.2 miSSW (200°)9.2 mphPartly Cloudy
9:00 PM82.4 °F78.8 °F89 %29.80 in6.2 miSouth (180°)9.2 mphPartly Cloudy
10:00 PM82.4 °F78.8 °F89 %29.83 in6.2 miSouth (190°)8.1 mphScattered Clouds
11:00 PM82.4 °F78.8 °F89 %29.83 in6.2 miSSW (200°)9.2 mphMostly Cloudy
11:56 PM82.4 °F78.8 °F89 %29.80 in6.2 miSSW (200°)11.5 mphScattered Clouds
Hourly data recorded from DGAA, located miles away from Tema, Ghana







STORIES FROM OUR PARTNERS